Location: Makanda
(37.6176°N, 89.2090°W)
Time: 08:02:03
(UTC+00:00)

S3M - Pass Details

Date: 23 September 2019
Orbit: 949 x 1004 km, 83.0° (Epoch: 18 October)

Event Time Altitude Azimuth Distance (km) Brightness Sun altitude
Rises 10:24:24 0° 348° (NNW) 3,656 7.0 -16.7°
Reaches altitude 10° 10:26:57 10° 344° (NNW) 2,713 6.3 -16.2°
Maximum altitude 10:32:57 54° 269° (W) 1,175 4.1 -15.1°
Drops below altitude 10° 10:39:01 10° 193° (SSW) 2,734 6.1 -13.9°
Sets 10:41:36 0° 189° (S) 3,686 6.8 -13.4°
